Weather History for KRKP - February, 2013

Change the Weather History Date:

Wednesday, February 6, 2013

  Actual Average Record
Temperature  
Mean Temperature 66 °F -  
Max Temperature 69 °F 62 °F 84 °F (1986)
Min Temperature 62 °F 45 °F 28 °F (1982)
Growing Degree Days 16 (Base 50)    
Moisture  
Dew Point 65 °F    
Average Humidity 93    
Maximum Humidity 100    
Minimum Humidity 84    
Precipitation  
Precipitation 2.73 in - - ()
Sea Level Pressure  
Sea Level Pressure 29.92 in    
Wind  
Wind Speed 11 mph (ENE)    
Max Wind Speed 23 mph    
Max Gust Speed 31 mph    
Visibility 5 miles    
Events Fog , Rain , Thunderstorm    
Averages and records for this station are not official NWS values.
T = Trace of Precipitation, MM = Missing Value Source: NWS Daily Summary

Daily Weather History Graph

Daily Weather History Graph

Search for Another Location

Airport or City:

Trip Planner

Search our weather history database for the weather conditions in past years. The results will help you decide how hot, cold, wet, or windy it might be!

Date:

Astronomy

Feb. 06, 2013 Rise Set
Actual Time 7:12 AM CST 6:12 PM CST
Civil Twilight 6:47 AM CST 6:36 PM CST
Nautical Twilight 6:20 AM CST 7:04 PM CST
Astronomical Twilight 5:52 AM CST 7:32 PM CST
Moon 3:47 AM CST (2/6) 2:41 PM CST (2/6)
Length of Visible Light 11h 49m
Length of Day
11h 00m
Waning Crescent, 17% of the Moon is Illuminated
Feb 6
Waning Crescent
Feb 10
New
Feb 17
First Quarter
Feb 25
Full
Mar 4
Last Quarter

Hourly Weather History & Observations

Time (CST) Temp. Dew Point Humidity Pressure Visibility Wind Dir Wind Speed Gust Speed Precip Events Conditions
1:10 AM 69.8 °F 66.2 °F 88% 30.01 in 6.0 mi SW 5.8 mph - N/A Thunderstorm Overcast
1:21 AM 69.8 °F 68.0 °F 94% 30.00 in 2.0 mi Variable 4.6 mph - 0.04 in Rain , Thunderstorm Heavy Thunderstorms and Rain
1:33 AM 69.8 °F 68.0 °F 94% 30.00 in 3.0 mi South 5.8 mph - 0.07 in Rain , Thunderstorm Heavy Thunderstorms and Rain
1:49 AM 69.8 °F 68.0 °F 94% 29.97 in 6.0 mi East 5.8 mph - 0.08 in Rain , Thunderstorm Light Rain
1:53 AM 69.1 °F 68.0 °F 96% 29.97 in 6.0 mi East 5.8 mph - 0.08 in Rain , Thunderstorm Light Rain
2:03 AM 69.8 °F 66.2 °F 88% 29.95 in 5.0 mi East 8.1 mph - 0.00 in Rain Light Rain
2:25 AM 69.8 °F 68.0 °F 94% 29.97 in 4.0 mi NE 3.5 mph - 0.00 in   Overcast
2:53 AM 69.1 °F 68.0 °F 96% 29.97 in 4.0 mi NNE 3.5 mph - 0.00 in   Overcast
3:53 AM 68.0 °F 66.9 °F 96% 29.94 in 6.0 mi ENE 6.9 mph - N/A   Overcast
4:53 AM 69.1 °F 66.9 °F 93% 29.94 in 5.0 mi East 9.2 mph - 0.00 in   Overcast
5:40 AM 69.8 °F 66.2 °F 88% 29.96 in 4.0 mi East 9.2 mph - N/A   Overcast
5:53 AM 69.1 °F 66.9 °F 93% 29.97 in 3.0 mi East 8.1 mph - N/A   Overcast
5:58 AM 69.8 °F 66.2 °F 88% 29.96 in 2.0 mi East 8.1 mph - N/A   Overcast
6:13 AM 68.0 °F 66.2 °F 94% 29.96 in 3.0 mi East 8.1 mph - N/A   Overcast
6:42 AM 68.0 °F 66.2 °F 94% 29.96 in 2.0 mi East 9.2 mph - N/A   Overcast
6:49 AM 68.0 °F 66.2 °F 94% 29.95 in 1.0 mi East 10.4 mph 17.3 mph N/A   Overcast
6:50 AM 68.0 °F 66.9 °F 96% 29.96 in 1.0 mi ENE 10.4 mph - N/A   Overcast
6:57 AM 68.0 °F 66.2 °F 94% 29.95 in 0.8 mi East 13.8 mph - N/A   Overcast
7:02 AM 68.0 °F 66.2 °F 94% 29.95 in 1.2 mi East 12.7 mph - 0.00 in Rain Light Rain
7:09 AM 68.0 °F 66.2 °F 94% 29.95 in 2.5 mi East 12.7 mph - 0.00 in Rain Light Rain
7:16 AM 68.0 °F 66.2 °F 94% 29.95 in 5.0 mi East 12.7 mph - 0.00 in   Overcast
7:23 AM 68.0 °F 66.2 °F 94% 29.94 in 5.0 mi East 13.8 mph - 0.00 in   Overcast
7:53 AM 68.0 °F 66.9 °F 96% 29.95 in 5.0 mi East 11.5 mph - 0.00 in   Overcast
8:32 AM 68.0 °F 66.2 °F 94% 29.92 in 4.0 mi East 11.5 mph - 0.00 in   Overcast
8:44 AM 68.0 °F 66.2 °F 94% 29.91 in 2.0 mi ESE 13.8 mph - 0.02 in Rain Light Rain
8:49 AM 68.0 °F 66.2 °F 94% 29.91 in 3.0 mi ESE 16.1 mph - 0.02 in Rain Light Rain
8:53 AM 68.0 °F 66.9 °F 96% 29.92 in 4.0 mi East 17.3 mph - 0.02 in   Overcast
9:37 AM 68.0 °F 66.2 °F 94% 29.90 in 2.5 mi East 19.6 mph - 0.00 in Rain , Thunderstorm Light Rain
9:44 AM 68.0 °F 66.2 °F 94% 29.88 in 4.0 mi East 19.6 mph - 0.00 in Rain , Thunderstorm Light Rain
9:53 AM 68.0 °F 66.9 °F 96% 29.89 in 5.0 mi East 23.0 mph 29.9 mph 0.00 in Rain , Thunderstorm Light Thunderstorms and Rain
10:01 AM 68.0 °F 66.2 °F 94% 29.90 in 2.0 mi East 16.1 mph 29.9 mph 0.06 in Rain , Thunderstorm Heavy Thunderstorms and Rain
10:09 AM 68.0 °F 66.2 °F 94% 29.88 in 1.5 mi East 19.6 mph 24.2 mph 0.10 in Rain , Thunderstorm Light Thunderstorms and Rain
10:30 AM 68.0 °F 66.2 °F 94% 29.94 in 0.5 mi NW 19.6 mph 26.5 mph 0.38 in Fog , Rain , Thunderstorm Heavy Thunderstorms and Rain
10:42 AM 68.0 °F 66.2 °F 94% 29.92 in 0.2 mi NW 15.0 mph 28.8 mph 1.29 in Fog , Rain , Thunderstorm Heavy Thunderstorms and Rain
10:53 AM 68.0 °F 66.9 °F 96% 29.93 in 0.2 mi North 18.4 mph 24.2 mph 1.89 in Fog , Rain , Thunderstorm Heavy Thunderstorms and Rain
11:05 AM 68.0 °F 66.2 °F 94% 29.94 in 0.5 mi NNE 13.8 mph - 0.45 in Fog , Rain , Thunderstorm Heavy Thunderstorms and Rain
11:16 AM 64.4 °F 64.4 °F 100% 29.94 in 0.8 mi North 20.7 mph 26.5 mph 0.67 in Rain , Thunderstorm Heavy Thunderstorms and Rain
11:22 AM 64.4 °F 64.4 °F 100% 29.93 in 1.2 mi North 18.4 mph 26.5 mph 0.70 in Rain , Thunderstorm Heavy Thunderstorms and Rain
11:29 AM 64.4 °F 62.6 °F 94% 29.93 in 2.5 mi North 18.4 mph 26.5 mph 0.72 in Rain , Thunderstorm Rain
11:36 AM 64.4 °F 62.6 °F 94% 29.93 in 6.0 mi North 19.6 mph 31.1 mph 0.72 in Rain , Thunderstorm Light Rain
11:46 AM 64.4 °F 62.6 °F 94% 29.91 in 3.0 mi North 21.9 mph 28.8 mph 0.73 in Rain Rain
11:53 AM 63.0 °F 62.1 °F 97% 29.92 in 5.0 mi North 20.7 mph 31.1 mph 0.73 in Rain Light Rain
11:57 AM 62.6 °F 62.6 °F 100% 29.91 in 9.0 mi NNE 23.0 mph 31.1 mph 0.00 in Rain , Thunderstorm Light Rain
12:16 PM 62.6 °F 62.6 °F 100% 29.90 in 10.0 mi North 19.6 mph 26.5 mph 0.00 in Rain , Thunderstorm Light Rain
12:25 PM 64.4 °F 62.6 °F 94% 29.90 in 6.0 mi NNE 19.6 mph 27.6 mph 0.01 in Rain Light Rain
12:53 PM 66.0 °F 63.0 °F 90% 29.89 in 10.0 mi NNE 19.6 mph 27.6 mph 0.01 in Rain Light Rain
1:53 PM 66.0 °F 62.1 °F 87% 29.86 in 10.0 mi NNE 17.3 mph 24.2 mph 0.00 in   Overcast
2:53 PM 66.0 °F 62.1 °F 87% 29.87 in 10.0 mi NE 16.1 mph 20.7 mph 0.00 in   Overcast
3:53 PM 66.9 °F 63.0 °F 87% 29.84 in 10.0 mi NE 15.0 mph - N/A   Overcast
4:08 PM 66.2 °F 62.6 °F 88% 29.83 in 10.0 mi NE 16.1 mph - N/A   Overcast
4:53 PM 66.9 °F 63.0 °F 87% 29.84 in 10.0 mi ENE 17.3 mph 23.0 mph N/A   Overcast
5:41 PM 66.2 °F 62.6 °F 88% 29.85 in 10.0 mi ENE 21.9 mph 29.9 mph N/A   Overcast
5:53 PM 66.0 °F 61.0 °F 84% 29.86 in 10.0 mi ENE 23.0 mph 28.8 mph N/A   Overcast
6:53 PM 64.9 °F 61.0 °F 87% 29.88 in 10.0 mi ENE 17.3 mph 25.3 mph N/A   Scattered Clouds
7:53 PM 64.0 °F 61.0 °F 90% 29.90 in 10.0 mi ENE 13.8 mph - N/A   Mostly Cloudy
8:20 PM 64.4 °F 60.8 °F 88% 29.90 in 10.0 mi ENE 16.1 mph 24.2 mph N/A   Scattered Clouds
8:53 PM 64.0 °F 60.1 °F 87% 29.91 in 10.0 mi ENE 17.3 mph 26.5 mph N/A   Partly Cloudy
9:53 PM 63.0 °F 60.1 °F 90% 29.91 in 10.0 mi East 17.3 mph - N/A   Partly Cloudy
10:53 PM 63.0 °F 60.1 °F 90% 29.92 in 10.0 mi East 15.0 mph - N/A   Clear
11:53 PM 63.0 °F 60.1 °F 90% 29.92 in 10.0 mi East 15.0 mph - N/A   Clear